Location: Lombard
(41.8800°N, 88.0080°W)
Time: 13:18:47
(UTC-06:00)

Transit 4A - Pass Details

Date: 07 December 2023
Orbit: 870 x 973 km, 66.8° (Epoch: 03 March)

Event Time Altitude Azimuth Distance (km) Brightness Sun altitude
Rises 02:20:00 0° 337° (NNW) 3,611 - -52.1°
Reaches altitude 10° 02:23:42 10° 359° (N) 2,642 - -51.5°
Maximum altitude 02:27:23 16° 36° (NE) 2,202 - -50.8°
Drops below altitude 10° 02:31:01 10° 73° (ENE) 2,591 - -50.2°
Exits shadow 02:31:26 - 77° (ENE) 2,680 10.8 -50.1°
Sets 02:34:34 0° 95° (E) 3,508 11.5 -49.5°
